Regional Weather Roundup
Issued by NWS

Home | Current Version | Previous Version | Graphics & Text | Print | Product List | Glossary On
Versions: 1 2 3 4 5 6 7 8 9 10 11 12 13 14 15 16 17 18 19 20 21 22 23 24 25 26 27
000
ASUS45 KBOI 241710
RWRID
WEATHER ROUNDUP FOR IDAHO
NATIONAL WEATHER SERVICE BOISE ID
1100 AM MDT THU APR 24 2014

NOTE: "FAIR" INDICATES FEW OR NO CLOUDS BELOW 12000 FEET
WITH NO SIGNIFICANT WEATHER AND/OR OBSTRUCTIONS TO VISIBILITY

IDZ012-014-241800-
SOUTHWEST IDAHO


CITY           SKY/WX    TMP DP  RH WIND       PRES   REMARKS
BOISE          CLOUDY    51  41  68 SE14      29.94S
CALDWELL       CLOUDY    54  39  58 SE15      29.96R
MOUNTAIN HOME  CLOUDY    52  45  76 E10       29.96S
$$

IDZ016-017-241800-
SOUTHCENTRAL IDAHO


CITY           SKY/WX    TMP DP  RH WIND       PRES   REMARKS
BURLEY         CLOUDY    50  34  54 SW16      30.00R
JEROME         LGT RAIN  47  40  76 N5        30.00R
TWIN FALLS     CLOUDY    53  37  54 S7        29.98F
$$

IDZ019>023-241800-
SOUTHEAST IDAHO


CITY           SKY/WX    TMP DP  RH WIND       PRES   REMARKS
IDAHO FALLS    CLOUDY    51  25  36 SW25G36   29.96F
POCATELLO      CLOUDY    54  24  31 SW17G31   29.99S
REXBURG        CLOUDY    48  26  42 SW14      29.96F
$$

IDZ006-010-011-018-031-032-241800-
CENTRAL IDAHO MOUNTAINS


CITY           SKY/WX    TMP DP  RH WIND       PRES   REMARKS
MCCALL         LGT RAIN  36  33  89 S5        29.89R WCI  32
HAILEY         LGT SNOW  34  34 100 S5        30.01R WCI  30
STANLEY          N/A     35  30  82 SE13G23   29.92F WCI  26
SALMON         CLOUDY    46  34  61 SW17      29.88R
CHALLIS        CLOUDY    45  31  58 SE20G26   29.90R
$$

IDZ002-004-006-007-026-241800-
NORTHERN IDAHO


CITY           SKY/WX    TMP DP  RH WIND       PRES   REMARKS
LEWISTON       LGT RAIN  49  43  80 E5        29.83R
LOWELL           N/A     43  41  93 CALM      29.91S
COEUR D`ALENE  CLOUDY    43  39  87 SE9       29.78R
MULLAN PASS    SNOW      31  29  92 VRB5      29.75R VSB 1/4 WCI  26
$$



USA.gov is the U.S. government's official web portal to all federal, state and local government web resources and services.